Location: Dead Woman Crossing
(43.5369°N, 106.3228°W)
Time: 20:03:06
(UTC+00:00)

Oscar 19 - Visible Passes

Search period start: 26 June 2022 00:00
Search period end: 06 July 2022 00:00
Orbit: 772 x 790 km, 98.8° (Epoch: 26 June)

Date Brightness Start Highest point End Pass type
(mag) Time Alt. Az. Time Alt. Az. Time Alt. Az.
26 Jun 12.3 09:51:22 10° NE 09:55:48 29° E 10:00:12 10° SSE visible
27 Jun 13.1 09:20:37 10° NE 09:23:27 15° E 09:26:16 10° SE visible
28 Jun 11.1 10:26:09 10° NNE 10:31:13 60° ESE 10:36:16 10° S visible
29 Jun 12.2 09:54:32 10° NE 09:59:03 31° E 10:03:32 10° SSE visible
30 Jun 13.1 09:23:40 10° NE 09:26:43 16° E 09:29:45 10° SE visible
01 Jul 11.0 10:29:21 10° NNE 10:34:27 64° ESE 10:39:31 10° S visible
02 Jul 12.1 09:57:41 10° NNE 10:02:17 32° E 10:06:51 10° SSE visible
03 Jul 13.0 09:26:43 10° NE 09:29:59 17° E 09:33:12 10° SE visible
04 Jul 11.0 10:32:33 10° NNE 10:37:40 68° ESE 10:42:45 10° S visible
05 Jul 12.0 10:00:52 10° NNE 10:05:31 34° E 10:10:10 10° SSE visible
